User: anonymous   Login
Location: Unspecified
(0.0000°N, 0.0000°E)
Time: 09:32:20
(UTC+00:00)
Language:

FAST 1 (USA 222) - Orbit

View from above orbital plane
View from above orbital plane
View from above satellite
View from above satellite

Ground track
Ground track

The orbit data is extracted from the following two-line orbital elements,

1 37227U 10062F   21334.47593037  .00000140  00000-0  26186-4 0  9993
2 37227  71.9691 228.3922 0016688 342.4516  17.6068 14.79815705119958
Epoch (UTC): 30 November 2021 11:25:20
Eccentricity: 0.0016688
inclination: 71.9691°
perigee height: 618 km
apogee height: 641 km
right ascension of ascending node: 228.3922°
argument of perigee: 342.4516°
revolutions per day: 14.79815705
mean anomaly at epoch: 17.6068°
orbit number at epoch: 11995

The dashed part of the orbit path shows where the satellite is in the earth's shadow,  

DLR